Погода в Шихазанах

Россия / Чувашская Республика     55°33′41″N   47°23′01″E
темп.,
°C
ветер,
м/с
пор.,
м/с
влажн.,
%
обл.,
%
осадки,
мм/ч
давл.,
гПа
погр.,
м
24 мая, вт
вт2400:00+1зюз3995100 0.0 1002335
03:000юз3996100 0.0 1003280
06:00+3ююз4784100 0.0 1002422
09:00+6зюз71074100 0.2 10021343
12:00+4з4790100 0.4 1004554
15:00+7з5772100 0.8 10051099
18:00+7зюз357194 0.0 1006977
21:00+3зюз348992 0.1 100771
25 мая, ср
ср2500:00+3зюз118799 0.0 100831
03:000зсз339277 0.0 100831
06:00+3сз35768 0.0 1009258
09:00+7сз566574 0.1 10091330
12:00+7сз676699 1.1 10101329
15:00+9сз576070 1.6 10111568
18:00+8зсз5873100 0.4 1011914
21:00+5зсз5109216 1.1 1012625
26 мая, чт
чт2600:00+3з399499 0.0 1013382
03:00+2зюз489659 0.0 1013183
06:00+5юз4787100 0.0 1013252
09:00+9юз6871100 0.0 10131095
12:00+11юз796299 0.6 10121609
15:00+11зюз797063 1.1 10121204
18:00+11юз467824 0.6 1011793
21:00+7ю349016 0.6 101148
27 мая, пт
пт2700:00+6ююв3792100 0.0 1009107
03:00+8ююв4998100 0.8 1006226
06:00+8ююв71497100 3.3 1004480
09:00+9ююв91695100 6.7 1001793
12:00+11ю71294100 1.5 1000641
15:00+10ююз61094100 1.9 1000652
18:00+10зюз71294100 0.6 1002647
21:00+9зюз5119482 0.9 1004437
28 мая, сб
сб2800:00+7юз410976 0.0 1006195
03:00+7юз499895 0.0 1007192
06:00+10ююз4893100 0.0 1007262
09:00+14ююз71272100 0.0 1007895
12:00+18ю91465100 0.0 10061357
15:00+18ююз91872100 0.4 10041682
18:00+10зсз21094100 3.7 1008419
21:00+9ююз4897100 3.8 1010214